Tracking 30703 objects as of 12-Jun-2025
HD Live streaming from Space Station
objects crossing your sky now

USA 17

Track USA 17 now!
10-day predictions
USA 17 is classified as:


NORAD ID: 16625
Int'l Code: 1986-014F
Perigee: 401.6 km
Apogee: 1,612.0 km
Inclination: 63.3 °
Period: 105.1 minutes
Semi major axis: 7377 km
RCS: Unknown
Launch date: February 9, 1986
Source: United States (US)
Launch site: AIR FORCE WESTERN TEST RANGE (AFWTR)
Your satellite tracking list
Your tracking list is empty




NASA's NSSDC Master Catalog

Two Line Element Set (TLE):
1 16625U 86014F   25163.32743342  .00007144  00000-0  61680-3 0  9994
2 16625  63.3004  32.1744 0820239 108.9212 260.2504 13.69975481292067
Source of the keplerian elements: AFSPC